User: anonymous   Login
Location: Brede
(50.9167°N, 0.6000°E)
Time: 00:48:05
(UTC+00:00)
Language:

Meteor 1-21 Rocket - Orbit

View from above orbital plane
View from above orbital plane
View from above satellite
View from above satellite

Ground track
Ground track

The orbit data is extracted from the following two-line orbital elements,

1  7715U 75023B   20292.94190708 +.00000155 +00000-0 +85121-4 0  9992
2  7715 081.2185 126.3377 0050697 301.2780 058.3428 14.06789565336917
Epoch (UTC): 18 October 2020 22:36:20
Eccentricity: 0.0050697
inclination: 81.2185°
perigee height: 833 km
apogee height: 907 km
right ascension of ascending node: 126.3377°
argument of perigee: 301.2780°
revolutions per day: 14.06789565
mean anomaly at epoch: 58.3428°
orbit number at epoch: 33691

The dashed part of the orbit path shows where the satellite is in the earth's shadow,  

DLR